Regional Weather Roundup
Issued by NWS

Home | Current Version | Previous Version | Graphics & Text | Print | Product List | Glossary On
Versions: 1 2 3 4 5 6 7 8 9 10 11 12 13 14 15 16 17 18 19 20 21 22 23 24 25 26 27 28 29 30 31 32 33 34 35 36 37 38 39 40 41 42 43 44 45 46 47 48 49 50
000
ASUS43 KTOP 242208
RWRKS

WEATHER ROUNDUP FOR KANSAS
NATIONAL WEATHER SERVICE GOODLAND KS
500 PM CDT SUN SEP 24 2017

NOTE:  "FAIR" INDICATES FEW OR NO CLOUDS BELOW 12,000 FEET WITH NO
SIGNIFICANT WEATHER AND/OR OBSTRUCTIONS TO VISIBILITY.

KSZ001>006-013>018-027>032-041>047-242300-
NORTHWEST KANSAS

CITY           SKY/WX    TMP DP  RH WIND       PRES   REMARKS
GOODLAND       LGT RAIN  53  52  96 NE9       29.94F
HAYS           PTSUNNY   76  65  68 E6        29.88S
HILL CITY      CLOUDY    66  62  87 N7        29.91F
RUSSELL        CLOUDY    77  63  61 N5        29.86F
$$

KSZ061>065-074>080-084>089-242300-
SOUTHWEST KANSAS

CITY           SKY/WX    TMP DP  RH WIND       PRES   REMARKS
DODGE CITY     MOSUNNY   80  62  54 S14       29.86F
ELKHART          N/A     75  67  76 SE16        N/A
GARDEN CITY    CLOUDY    74  64  71 SE14      29.85F
GREAT BEND     CLOUDY    77  68  73 VRB5      29.87S
LIBERAL        PTSUNNY   79  65  62 S24       29.84F
PRATT          CLOUDY    83  58  42 S20       29.86F
$$

KSZ066>073-081>083-090>101-242300-
SOUTHEAST KANSAS

CITY           SKY/WX    TMP DP  RH WIND       PRES   REMARKS
CHANUTE        MOSUNNY   86  66  51 S9        29.90F
COFFEYVILLE    MOSUNNY   88  68  51 SW8       29.88F
HUTCHINSON     CLOUDY    88  63  43 SE21G26   29.85F
MEDICINE LODGE   N/A     84  59  42 S18G25    29.84F
NEWTON         PTSUNNY   86  62  44 S16G22    29.88S
PARSONS        MOSUNNY   87  65  47 VRB6      29.90F
WICHITA INTL   PTSUNNY   87  63  44 S16       29.86S
WICHITA JABRA  MOSUNNY   85  65  51 SE10G20   29.87S
WICHITA MCCONL MOSUNNY   87  62  42 S16       29.87S
WINFIELD       MOSUNNY   88  64  44 S14       29.87F
$$

KSZ007>012-019>026-033>040-048>060-102>105-242300-
NORTHEAST KANSAS

CITY           SKY/WX    TMP DP  RH WIND       PRES   REMARKS
CONCORDIA      MOSUNNY   83  62  49 S9        29.85F
EMPORIA        MOSUNNY   87  63  44 SE14      29.88F
LAWRENCE       SUNNY     88  67  49 S10       29.89F
MANHATTAN      CLOUDY    89  62  40 S13       29.84F
MARYSVILLE     CLOUDY    81  68  65 CALM      29.86F
OLATHE IND     SUNNY     87  65  47 SE12      29.91F
OLATHE EXE     MOSUNNY   84  67  56 S10       29.91F
SALINA         CLOUDY    90  61  37 S17G23    29.84F
TOPEKA BILLARD MOSUNNY   87  66  49 SE13      29.88F
TOPEKA FORBES  MOSUNNY   90  67  46 S12       29.89F
$$




USA.gov is the U.S. government's official web portal to all federal, state and local government web resources and services.